GW4413 Weather Reports


Display with metric or nautical units.
time (UTC)temp
F
wind
direction
speed
MPH
gust
MPH
rain 1hr
in
rain 24hr
in
rain mn
in
humidity
%
barometer
mb
20260831213515 66 292 0.0 3.0 0.00 0.00 0.00 66 1012.0
20260831213019 66 335 1.0 3.0 0.00 0.00 0.00 66 1012.1
20260831212504 66 275 0.0 2.0 0.00 0.00 0.00 66 1012.2
20260831212012 66 273 0.0 2.0 0.00 0.00 0.00 67 1012.2
20260831211521 66 5 0.0 2.0 0.00 0.00 0.00 68 1012.4
20260831211004 65 5 1.0 2.0 0.00 0.00 0.00 67 1012.3
20260831210515 65 360 0.0 3.0 0.00 0.00 0.00 68 1012.5
20260831210019 65 257 0.0 3.0 0.00 0.00 0.00 67 1012.5
20260831205506 65 321 1.0 4.0 0.00 0.00 0.00 68 1012.5
20260831205011 65 321 1.0 4.0 0.00 0.00 0.00 68 1012.7
20260831204520 65 278 0.0 3.0 0.00 0.00 0.00 67 1012.7
20260831204004 65 313 1.0 3.0 0.00 0.00 0.00 67 1012.7
20260831203516 65 5 0.0 3.0 0.00 0.00 0.00 67 1012.7
20260831203022 65 304 0.0 3.0 0.00 0.00 0.00 67 1012.8
20260831202505 65 269 1.0 3.0 0.00 0.00 0.00 67 1012.8
20260831202016 65 291 0.0 3.0 0.00 0.00 0.00 68 1013.0
20260831201519 65 323 1.0 2.0 0.00 0.00 0.00 68 1013.1
20260831201003 65 245 1.0 2.0 0.00 0.00 0.00 68 1013.1
20260831200511 65 296 1.0 3.0 0.00 0.00 0.00 68 1013.1
20260831200020 65 360 1.0 3.0 0.00 0.00 0.00 68 1013.2
20260831195505 64 290 1.0 3.0 0.00 0.00 0.00 68 1013.2
20260831195015 64 328 1.0 2.0 0.00 0.00 0.00 69 1013.2
20260831194519 64 5 0.0 3.0 0.00 0.00 0.00 69 1013.2
20260831194005 64 352 1.0 3.0 0.00 0.00 0.00 70 1013.2
20260831193515 64 311 0.0 2.0 0.00 0.00 0.00 71 1013.3
20260831193020 64 289 0.0 3.0 0.00 0.00 0.00 71 1013.3
20260831192506 63 279 1.0 3.0 0.00 0.00 0.00 72 1013.4
20260831192018 63 41 0.0 3.0 0.00 0.00 0.00 71 1013.5
20260831191520 63 319 0.0 2.0 0.00 0.00 0.00 72 1013.5
20260831191003 63 327 0.0 2.0 0.00 0.00 0.00 72 1013.7
20260831190515 63 346 0.0 0.0 0.00 0.00 0.00 73 1013.8
20260831190022 63 346 0.0 3.0 0.00 0.00 0.00 74 1013.9
20260831185503 63 346 0.0 3.0 0.00 0.00 0.00 73 1013.9
20260831185013 62 346 0.0 2.0 0.00 0.00 0.00 74 1013.9
20260831184520 62 346 0.0 3.0 0.00 0.00 0.00 73 1014.0
20260831184003 62 346 1.0 3.0 0.00 0.00 0.00 73 1014.0
20260831183513 62 346 0.0 1.0 0.00 0.00 0.00 74 1014.0
20260831183019 62 346 0.0 2.0 0.00 0.00 0.00 75 1014.1
20260831182507 62 346 0.0 2.0 0.00 0.00 0.00 75 1014.1
20260831182014 62 342 1.0 2.0 0.00 0.00 0.00 76 1014.2
20260831181534 62 283 0.0 2.0 0.00 0.00 0.00 77 1014.2
20260831181015 62 217 0.0 2.0 0.00 0.00 0.00 77 1014.2
20260831180515 62 256 0.0 2.0 0.00 0.00 0.00 77 1014.2
20260831180035 62 331 0.0 2.0 0.00 0.00 0.00 77 1014.2
20260831175516 62 65 0.0 2.0 0.00 0.00 0.00 78 1014.3
20260831175012 62 65 0.0 2.0 0.00 0.00 0.00 78 1014.3
20260831174533 61 23 0.0 2.0 0.00 0.00 0.00 77 1014.3
20260831174019 61 23 0.0 2.0 0.00 0.00 0.00 77 1014.3
20260831173514 61 330 0.0 3.0 0.00 0.00 0.00 76 1014.3
20260831173031 61 302 0.0 3.0 0.00 0.00 0.00 78 1014.4
20260831172517 60 302 0.0 3.0 0.00 0.00 0.00 78 1014.4
20260831172016 60 302 0.0 2.0 0.00 0.00 0.00 79 1014.4
20260831171535 60 302 0.0 2.0 0.00 0.00 0.00 80 1014.4
20260831171016 60 302 1.0 2.0 0.00 0.00 0.00 80 1014.5
20260831170516 59 302 0.0 2.0 0.00 0.00 0.00 82 1014.5
20260831170033 59 302 0.0 0.0 0.00 0.00 0.00 82 1014.5
20260831165517 59 302 0.0 0.0 0.00 0.00 0.00 84 1014.5
20260831165014 58 302 0.0 0.0 0.00 0.00 0.00 84 1014.4
20260831164531 58 302 0.0 0.0 0.00 0.00 0.00 84 1014.4
20260831164018 58 302 0.0 0.0 0.00 0.00 0.00 84 1014.5
20260831163513 58 302 0.0 1.0 0.00 0.00 0.00 85 1014.6
20260831163039 57 302 0.0 1.0 0.00 0.00 0.00 85 1014.6
20260831162516 57 302 0.0 0.0 0.00 0.00 0.00 88 1014.6
20260831162012 57 302 0.0 0.0 0.00 0.00 0.00 88 1014.7
20260831161533 57 302 0.0 0.0 0.00 0.00 0.00 89 1014.7
20260831161020 56 302 0.0 0.0 0.00 0.00 0.00 89 1014.7
20260831160516 56 302 0.0 0.0 0.00 0.00 0.00 89 1014.7
20260831160038 56 302 0.0 0.0 0.00 0.00 0.00 90 1014.8
20260831155516 56 302 0.0 0.0 0.00 0.00 0.00 90 1014.9
20260831155016 55 302 0.0 0.0 0.00 0.00 0.00 91 1015.0
20260831154559 55 302 0.0 0.0 0.00 0.00 0.00 92 1015.0
20260831154018 55 302 0.0 0.0 0.00 0.00 0.00 92 1015.1
20260831153515 55 302 0.0 0.0 0.00 0.00 0.00 92 1015.1
20260831153035 55 302 0.0 0.0 0.00 0.00 0.00 92 1015.1
20260831152516 55 302 0.0 0.0 0.00 0.00 0.00 93 1015.0
20260831152016 55 302 0.0 0.0 0.00 0.00 0.00 93 1015.0
20260831151519 54 302 0.0 0.0 0.00 0.00 0.00 93 1015.1
20260831151004 54 302 0.0 0.0 0.00 0.00 0.00 93 1015.1
20260831150504 54 302 0.0 0.0 0.00 0.00 0.00 93 1015.1
20260831150016 54 302 0.0 0.0 0.00 0.00 0.00 93 1015.1
20260831145503 54 302 0.0 0.0 0.00 0.00 0.00 93 1015.1
20260831145003 54 302 0.0 0.0 0.00 0.00 0.00 93 1015.1
20260831144518 54 302 0.0 0.0 0.00 0.00 0.00 93 1015.2
20260831144003 54 302 0.0 0.0 0.00 0.00 0.00 93 1015.2
20260831143501 54 302 0.0 0.0 0.00 0.00 0.00 93 1015.1
20260831143019 54 302 0.0 0.0 0.00 0.00 0.00 93 1015.1
20260831142506 54 302 0.0 0.0 0.00 0.00 0.00 93 1015.1
20260831142005 54 302 0.0 0.0 0.00 0.00 0.00 93 1015.2
20260831141518 54 302 0.0 0.0 0.00 0.00 0.00 93 1015.2
20260831141006 54 302 0.0 0.0 0.00 0.00 0.00 93 1015.1
20260831140502 54 302 0.0 0.0 0.00 0.00 0.00 93 1015.1
20260831140025 54 302 0.0 0.0 0.00 0.00 0.00 93 1015.0
20260831135506 54 302 0.0 0.0 0.00 0.00 0.00 93 1015.0
20260831135006 54 302 0.0 0.0 0.00 0.00 0.00 93 1014.9
20260831134528 54 302 0.0 0.0 0.00 0.00 0.00 92 1014.9
20260831134003 54 302 0.0 0.0 0.00 0.00 0.00 92 1014.9
20260831133503 54 302 0.0 0.0 0.00 0.00 0.00 93 1014.8
20260831133020 54 302 0.0 0.0 0.00 0.00 0.00 93 1014.9
20260831132503 54 302 0.0 0.0 0.00 0.00 0.00 93 1014.9
20260831132002 54 302 0.0 0.0 0.00 0.00 0.00 93 1014.9
20260831131518 54 302 0.0 0.0 0.00 0.00 0.00 93 1015.0
20260831131006 54 302 0.0 0.0 0.00 0.00 0.00 93 1015.0
20260831130512 54 302 0.0 0.0 0.00 0.00 0.00 93 1015.1
20260831130024 55 302 0.0 0.0 0.00 0.00 0.00 93 1015.2
20260831125506 55 302 0.0 0.0 0.00 0.00 0.00 93 1015.2
20260831125011 55 302 0.0 0.0 0.00 0.00 0.00 93 1015.2
20260831124521 55 302 0.0 0.0 0.00 0.00 0.00 93 1015.3
20260831124006 55 302 0.0 0.0 0.00 0.00 0.00 93 1015.3
20260831123509 55 302 0.0 0.0 0.00 0.00 0.00 93 1015.3
20260831123025 55 302 0.0 0.0 0.00 0.00 0.00 93 1015.3
20260831122503 55 302 0.0 0.0 0.00 0.00 0.00 93 1015.4
20260831122010 55 302 0.0 0.0 0.00 0.00 0.00 93 1015.3
20260831121523 55 302 0.0 0.0 0.00 0.00 0.00 93 1015.4
20260831121006 55 302 0.0 0.0 0.00 0.00 0.00 93 1015.5
20260831120514 55 302 0.0 0.0 0.00 0.00 0.00 93 1015.5
20260831120026 55 302 0.0 0.0 0.00 0.00 0.00 93 1015.6
20260831115507 55 302 0.0 0.0 0.00 0.00 0.00 93 1015.7
20260831115013 55 302 0.0 0.0 0.00 0.00 0.00 93 1015.8
20260831114543 55 302 0.0 0.0 0.00 0.00 0.00 93 1015.8
20260831114007 55 302 0.0 0.0 0.00 0.00 0.00 92 1015.8
20260831113514 55 302 0.0 0.0 0.00 0.00 0.00 92 1015.9
20260831113023 55 302 0.0 0.0 0.00 0.00 0.00 92 1015.9
20260831112503 55 302 0.0 0.0 0.00 0.00 0.00 92 1015.9
20260831112012 55 302 0.0 0.0 0.00 0.00 0.00 92 1016.0
20260831111523 55 302 0.0 0.0 0.00 0.00 0.00 92 1015.9
20260831111005 55 302 0.0 0.0 0.00 0.00 0.00 92 1015.9
20260831110513 55 302 0.0 0.0 0.00 0.00 0.00 92 1016.0
20260831110026 55 302 0.0 0.0 0.00 0.00 0.00 92 1016.1
20260831105508 55 302 0.0 0.0 0.00 0.00 0.00 92 1016.0
20260831105013 55 302 0.0 0.0 0.00 0.00 0.00 92 1016.0
20260831104534 55 302 0.0 0.0 0.00 0.00 0.00 92 1016.0
20260831104007 55 302 0.0 0.0 0.00 0.00 0.00 92 1016.0
20260831103511 55 302 0.0 0.0 0.00 0.00 0.00 92 1015.9
20260831103023 55 302 0.0 0.0 0.00 0.00 0.00 92 1016.1
20260831102505 55 302 0.0 0.0 0.00 0.00 0.00 91 1016.1
20260831102012 55 302 0.0 0.0 0.00 0.00 0.00 91 1016.2
20260831101534 55 302 0.0 0.0 0.00 0.00 0.00 91 1016.2
20260831101007 55 302 0.0 0.0 0.00 0.00 0.00 91 1016.2
20260831100514 55 302 0.0 0.0 0.00 0.00 0.00 91 1016.3
20260831100021 55 302 0.0 0.0 0.00 0.00 0.00 91 1016.3
20260831095505 55 302 0.0 0.0 0.00 0.00 0.00 90 1016.4
20260831095018 55 302 0.0 0.0 0.00 0.00 0.00 90 1016.5
20260831094523 55 302 0.0 0.0 0.00 0.00 0.00 90 1016.5
20260831094006 55 302 0.0 0.0 0.00 0.00 0.00 90 1016.6
20260831093512 55 302 0.0 0.0 0.00 0.00 0.00 90 1016.6
20260831093024 55 302 0.0 0.0 0.00 0.00 0.00 90 1016.7
20260831092507 55 302 0.0 0.0 0.00 0.00 0.00 90 1016.8
20260831092015 55 302 0.0 0.0 0.00 0.00 0.00 90 1016.9
20260831091532 56 302 0.0 0.0 0.00 0.00 0.00 89 1016.9
20260831091007 56 302 0.0 0.0 0.00 0.00 0.00 89 1016.9
20260831090513 56 302 0.0 0.0 0.00 0.00 0.00 89 1016.9
20260831090023 56 302 0.0 0.0 0.00 0.00 0.00 90 1016.9
20260831085518 56 302 0.0 0.0 0.00 0.00 0.00 90 1017.0
20260831085016 56 302 0.0 0.0 0.00 0.00 0.00 90 1017.0
20260831084523 56 302 0.0 0.0 0.00 0.00 0.00 89 1017.0
20260831084014 56 302 0.0 0.0 0.00 0.00 0.00 90 1016.9
20260831083515 56 302 0.0 0.0 0.00 0.00 0.00 90 1017.1
20260831083025 56 302 0.0 0.0 0.00 0.00 0.00 90 1017.1
20260831082516 56 302 0.0 0.0 0.00 0.00 0.00 90 1017.1
20260831082018 56 302 0.0 0.0 0.00 0.00 0.00 90 1017.1
20260831081524 56 302 0.0 0.0 0.00 0.00 0.00 89 1017.2
20260831081014 56 302 0.0 0.0 0.00 0.00 0.00 89 1017.3
20260831080515 56 302 0.0 0.0 0.00 0.00 0.00 89 1017.3
20260831080030 56 302 0.0 0.0 0.00 0.00 0.00 89 1017.3
20260831075518 56 302 0.0 0.0 0.00 0.00 0.00 89 1017.4
20260831075016 56 302 0.0 0.0 0.00 0.00 0.00 89 1017.4
20260831074526 56 302 0.0 0.0 0.00 0.00 0.00 89 1017.5
20260831074017 56 302 0.0 0.0 0.00 0.00 0.00 89 1017.5
20260831073516 56 302 0.0 0.0 0.00 0.00 0.00 89 1017.5
20260831073024 56 302 0.0 0.0 0.00 0.00 0.00 89 1017.5
20260831072516 56 302 0.0 0.0 0.00 0.00 0.00 89 1017.5
20260831072015 56 302 0.0 0.0 0.00 0.00 0.00 89 1017.6
20260831071526 56 302 0.0 0.0 0.00 0.00 0.00 89 1017.6
20260831071018 56 302 0.0 0.0 0.00 0.00 0.00 88 1017.7
20260831070515 56 302 0.0 0.0 0.00 0.00 0.00 88 1017.7
20260831070025 56 302 0.0 0.0 0.00 0.00 0.00 88 1017.8
20260831065518 56 302 0.0 0.0 0.00 0.00 0.00 88 1017.9
20260831065017 56 302 0.0 0.0 0.00 0.00 0.00 88 1017.9
20260831064523 57 302 0.0 0.0 0.00 0.00 0.00 87 1018.0
20260831064017 57 302 0.0 0.0 0.00 0.00 0.00 87 1018.0
20260831063514 57 302 0.0 0.0 0.00 0.00 0.00 87 1018.1
20260831063034 57 302 0.0 0.0 0.00 0.00 0.00 87 1018.1
20260831062518 57 302 0.0 0.0 0.00 0.00 0.00 87 1018.2
20260831062015 57 302 0.0 0.0 0.00 0.00 0.00 86 1018.2
20260831061527 57 302 0.0 0.0 0.00 0.00 0.00 86 1018.2
20260831061008 57 302 0.0 0.0 0.00 0.00 0.00 86 1018.2
20260831060506 57 302 0.0 0.0 0.00 0.00 0.00 86 1018.3
20260831060030 57 302 0.0 0.0 0.00 0.00 0.00 85 1018.3
20260831055507 58 302 0.0 0.0 0.00 0.00 0.00 85 1018.3
20260831055007 58 302 0.0 0.0 0.00 0.00 0.00 85 1018.3
20260831054524 58 302 0.0 0.0 0.00 0.00 0.00 85 1018.4
20260831054006 58 302 0.0 0.0 0.00 0.00 0.00 85 1018.4
20260831053504 58 302 0.0 0.0 0.00 0.00 0.00 84 1018.4
20260831053026 58 302 0.0 0.0 0.00 0.00 0.00 84 1018.5
20260831052506 58 302 0.0 0.0 0.00 0.00 0.00 84 1018.6
20260831052003 58 302 0.0 0.0 0.00 0.00 0.00 83 1018.6
20260831051531 59 302 0.0 0.0 0.00 0.00 0.00 83 1018.7
20260831051005 59 302 0.0 0.0 0.00 0.00 0.00 83 1018.7
20260831050502 59 302 0.0 0.0 0.00 0.00 0.00 82 1018.7
20260831050030 59 302 0.0 0.0 0.00 0.00 0.00 82 1018.7
20260831045508 59 302 0.0 0.0 0.00 0.00 0.00 82 1018.7
20260831045005 59 302 0.0 0.0 0.00 0.00 0.00 82 1018.8
20260831044527 59 302 0.0 0.0 0.00 0.00 0.00 81 1018.8
20260831044005 60 302 0.0 0.0 0.00 0.00 0.00 81 1018.8
20260831043504 60 302 0.0 0.0 0.00 0.00 0.00 81 1018.8
20260831043023 60 302 0.0 0.0 0.00 0.00 0.00 81 1018.8
20260831042504 60 302 0.0 0.0 0.00 0.00 0.00 81 1018.9
20260831042004 60 302 0.0 0.0 0.00 0.00 0.00 80 1018.9
20260831041534 60 302 0.0 0.0 0.00 0.00 0.00 80 1018.9
20260831041006 60 302 0.0 0.0 0.00 0.00 0.00 80 1018.9
20260831040514 60 302 0.0 0.0 0.00 0.00 0.00 80 1018.9
20260831040035 60 302 0.0 0.0 0.00 0.00 0.00 79 1018.9
20260831035508 60 302 0.0 0.0 0.00 0.00 0.00 79 1018.9
20260831035017 60 302 0.0 0.0 0.00 0.00 0.00 79 1018.9
20260831034523 60 302 0.0 0.0 0.00 0.00 0.00 79 1018.9
20260831034008 61 302 0.0 0.0 0.00 0.00 0.00 79 1018.8
20260831033516 61 302 0.0 0.0 0.00 0.00 0.00 78 1018.8
20260831033024 61 302 0.0 0.0 0.00 0.00 0.00 78 1018.8
20260831032508 61 302 0.0 0.0 0.00 0.00 0.00 78 1018.8
20260831032014 61 302 0.0 0.0 0.00 0.00 0.00 77 1018.9
20260831031525 61 302 0.0 0.0 0.00 0.00 0.00 77 1018.9
20260831031006 61 302 0.0 0.0 0.00 0.00 0.00 77 1018.9
20260831030516 61 302 0.0 0.0 0.00 0.00 0.00 77 1018.8
20260831030023 61 302 0.0 0.0 0.00 0.00 0.00 76 1018.7
20260831025508 62 302 0.0 0.0 0.00 0.00 0.00 76 1018.7
20260831025016 62 302 0.0 0.0 0.00 0.00 0.00 75 1018.8
20260831024523 62 302 0.0 0.0 0.00 0.00 0.00 75 1018.8
20260831024009 62 302 0.0 0.0 0.00 0.00 0.00 75 1018.8
20260831023516 62 302 0.0 0.0 0.00 0.00 0.00 75 1018.9
20260831023024 62 302 0.0 0.0 0.00 0.00 0.00 74 1018.9
20260831022505 62 302 0.0 0.0 0.00 0.00 0.00 74 1019.0
20260831022015 62 302 0.0 0.0 0.00 0.00 0.00 74 1019.1
20260831021524 62 302 0.0 0.0 0.00 0.00 0.00 73 1019.1
20260831021008 62 302 0.0 0.0 0.00 0.00 0.00 72 1019.2
20260831020514 62 302 0.0 0.0 0.00 0.00 0.00 73 1019.2
20260831020026 62 302 0.0 0.0 0.00 0.00 0.00 73 1019.2
20260831015506 62 302 0.0 0.0 0.00 0.00 0.00 72 1019.2
20260831015016 63 302 0.0 0.0 0.00 0.00 0.00 72 1019.3
20260831014530 63 302 0.0 0.0 0.00 0.00 0.00 72 1019.3
20260831014007 63 302 0.0 0.0 0.00 0.00 0.00 71 1019.3
20260831013515 63 302 0.0 0.0 0.00 0.00 0.00 71 1019.3
20260831013027 63 302 0.0 0.0 0.00 0.00 0.00 69 1019.3
20260831012508 63 302 0.0 0.0 0.00 0.00 0.00 70 1019.2
20260831012015 63 302 0.0 0.0 0.00 0.00 0.00 69 1019.2
20260831011533 63 302 0.0 0.0 0.00 0.00 0.00 70 1019.3
20260831011007 63 302 0.0 0.0 0.00 0.00 0.00 69 1019.4
20260831010517 63 302 0.0 0.0 0.00 0.00 0.00 70 1019.5
20260831010024 63 302 0.0 0.0 0.00 0.00 0.00 69 1019.5
20260831005508 63 302 0.0 0.0 0.00 0.00 0.00 69 1019.6
20260831005017 63 302 0.0 0.0 0.00 0.00 0.00 69 1019.6
20260831004526 63 302 0.0 0.0 0.00 0.00 0.00 68 1019.6
20260831004010 63 302 0.0 0.0 0.00 0.00 0.00 68 1019.6
20260831003516 63 302 0.0 0.0 0.00 0.00 0.00 68 1019.6
20260831003026 63 302 0.0 0.0 0.00 0.00 0.00 67 1019.6
20260831002508 63 302 0.0 0.0 0.00 0.00 0.00 66 1019.7
20260831002013 64 302 0.0 0.0 0.00 0.00 0.00 66 1019.8
20260831001526 64 302 0.0 0.0 0.00 0.00 0.00 66 1019.8
20260831001008 64 302 0.0 0.0 0.00 0.00 0.00 66 1019.9
20260831000514 64 302 0.0 0.0 0.00 0.00 0.00 66 1019.8
20260831000024 64 302 0.0 1.0 0.00 0.00 0.00 66 1019.8
20260830235508 64 302 0.0 1.0 0.00 0.00 0.00 65 1019.8
20260830235015 65 302 0.0 0.0 0.00 0.00 0.00 66 1019.8
20260830234525 65 302 0.0 0.0 0.00 0.00 0.00 66 1019.7
20260830234018 65 302 0.0 0.0 0.00 0.00 0.00 65 1019.8
20260830233517 65 302 0.0 0.0 0.00 0.00 0.00 64 1019.7
20260830233026 65 302 0.0 0.0 0.00 0.00 0.00 65 1019.8
20260830232519 65 302 0.0 2.0 0.00 0.00 0.00 66 1019.8
20260830232016 65 302 0.0 2.0 0.00 0.00 0.00 64 1019.9
20260830231533 65 302 0.0 2.0 0.00 0.00 0.00 64 1019.9
20260830231020 66 302 0.0 2.0 0.00 0.00 0.00 64 1019.9
20260830230518 66 302 0.0 2.0 0.00 0.00 0.00 67 1019.9
20260830230040 66 302 0.0 2.0 0.00 0.00 0.00 61 1019.8
20260830225517 66 302 0.0 2.0 0.00 0.00 0.00 64 1019.8
20260830225015 66 302 0.0 2.0 0.00 0.00 0.00 64 1019.8
20260830224523 66 302 0.0 2.0 0.00 0.00 0.00 64 1019.8
20260830224019 66 302 0.0 2.0 0.00 0.00 0.00 63 1019.8
20260830223514 66 284 0.0 2.0 0.00 0.00 0.00 63 1019.8
20260830223028 66 284 0.0 2.0 0.00 0.00 0.00 62 1019.8
20260830222515 66 352 0.0 2.0 0.00 0.00 0.00 64 1019.9
20260830222015 66 277 0.0 1.0 0.00 0.00 0.00 62 1019.9
20260830221528 66 277 0.0 2.0 0.00 0.00 0.00 63 1020.0
20260830221017 66 275 0.0 2.0 0.00 0.00 0.00 63 1020.1
20260830220516 66 40 0.0 2.0 0.00 0.00 0.00 62 1020.1
20260830220032 66 305 0.0 2.0 0.00 0.00 0.00 62 1020.2
20260830215518 66 191 1.0 2.0 0.00 0.00 0.00 63 1020.2
20260830215020 66 201 0.0 3.0 0.00 0.00 0.00 63 1020.2
20260830214526 66 142 0.0 3.0 0.00 0.00 0.00 63 1020.3
20260830214015 66 211 0.0 3.0 0.00 0.00 0.00 62 1020.4